Aérodrome :
LOGIN :

S'inscrire | Disclaimer

   EN    FR    IT 

 










Légende :    VFR   VFR Marginal   IFR   IFR Intensif   IFR Très Intensif
Visi : 
Plafond : 
>= 8 km
>= 3000ft
5 à 8 km
1000 à 3000 ft
1500m à 5 km
500 à 1000 ft
800 à 1500m
200 à 500 ft
< 800m
< 200 ft
Symboles :   Orages  Brouillard  Fortes neiges  Fortes précipitations  Vent > 20 kt
SIGMETs :   Divers  Orages  Givrage  Turbulence  Onde Orograph.  Cendres Volcan.







- Altitude de l'aérodrome : 1766 ft


ETHL - Laupheim AB

DERNIER METAR :
  • 220620Z 05015KT 6000 DRSN FEW013 OVC020 M06/M08 Q1013 WHT WHT

METARs EXPIRÉS :
  • 220520Z 05014KT 7000 FEW015 BKN020 M06/M08 Q1013 WHT WHT

TAF TAF ETHL
Valide du 22 à 06h jusqu'au 22 à 15h UTC


220529Z 2206/2215 05010G20KT 7000 NSW FEW015 OVC023
BECMG 2208/2210 06015G25KT 5000 DRSN BKN012 OVC070
TEMPO 2213/2215 07015G27KT 2000 -SN SCT005 BKN010
Pas de NOTAMs connus pour ce terrain.



MET'MAP, la Météo Aéronautique d'un coup d'oeil ! - Copyright ORBIFLY Décembre 2007 - Disclaimer

ORBIFLY MET'MAP TEAM :

Programmation & Développement : Alexandra Zaïnal
Conception & Développement : Baudouin d'Aumeries
Co-Programmation & Développement : Marc-Olivier Méhu
Soutien technique & logistique : Manuel Goepfert

Contact : metmap@orbifly.com




SOURCES & CREDITS :

   NOAA